STARLINK-31956, 59930

Orbit data source: Space-Track

STARLINK-31956, 59930 is a payload satellite owned by SpaceX/Seattle (US) in LEO that was launched on Sat, 01 Jun 2024 UTC via an FALCON 9 launch vehicle from the Air Force Eastern Test Range (AFETR). Payload-class satellites include a variety of spacecraft equipped with specific instruments for various scientific and technological missions. These include communications satellites like Starlink; space stations such as the ISS; scientific satellites like the Hubble; Earth observation satellites from companies like Planet Labs, Umbra, and HawkEye 360; GPS; miniature CubeSats for education and research; and military/defense satellites.

Loading next visibility...
Identifier
59930, 2024-106J
Orbit
LEO
Country
Flag of USUS
Related business
Manufacturer
SpaceX/Seattle
Mission
Operational Commercial Communications
Bus & Motor
STARLINK V2M, Unknown motor
Mass
730 kg wet, ~700 kg dry
Launch date (UTC)
2024-06-01 (2 years ago)
Launch vehicle
FALCON 9
Launch site
Air Force Eastern Test Range (AFETR)
Object type
Payload
Rocket body
Debris
Shape & HBR
Box + 2 Pan, 17.7 m
Radar Cross Section
33.884 m², Large (>1 m²)

Expand to show TLE details & history
Last TLE update: 21 hours ago

TLE from 21 hours ago
0 STARLINK-31956
1 59930U 24106J   25340.84371503  .00007078  00000-0  26619-3 0  9993
2 59930  42.9995 136.8304 0001620 298.9866  61.0823 15.27616593 86322
Epoch: 2025-12-06T20:14Z
TLE epoch observation values (Epoch: 2025-12-06T20:14:56.978Z)
Latitude
-0.00003°
Longitude
117.22732°
Altitude
482.178 km
Speed
7.626 km/s
True Right ascension
09h 07m 19s
True Declination
0° 00' 00"
Sunlit
Object was in full shadow at epoch
Visualization orbit readout
Latitude
Unknown
Longitude
Unknown
Altitude
Unknown
Speed
Unknown
Apparent Right ascension
Unknown
Apparent Declination
Unknown
Sunlit
N/A
Visualization observer readout
Local Sidereal Time
14:52:30
Azimuth
Unknown
Elevation
Unknown
Doppler factor
Unknown
Orbital elements
Apogee altitude
485.997 km
Perigee altitude
483.773 km
Semi-major axis
6,863.022 km
Eccentricity
0.00016
Inclination
42.9995°
RAAN
136.8304°
Arg. of periapsis
298.9866°
True anomaly
61.09855°
Mean anomaly
61.0823°
Eccentric anomaly
61.09043°
Mean motion
3.81742 °/min
Orbital period
94.3 mins
BSTAR
0.00026619
Loading maneuver chart data...
Computing Atmospheric mass density...
Loading historical data...
Loading historical data...
Loading historical data...
Loading historical data...
Loading historical data...
Loading historical data...
Loading historical data...

Documentation

Showing up to 5 results
|